SWA0450 KPDX-KSMF

Flight info

Callsign SWA0450
Flight time 1h 9m
Altitude 35000
Route HRMNS6 HYJOE LMT TUDOR2
Aircraft B738/M-SDE2E3FGHIRWXY/LB1

Departure

Time 2026-05-07 03:08
Airport Portland International Airport (KPDX)

Arrival

Time 2026-05-07 04:18
Airport Sacramento International Airport (KSMF)
Time Latitude Longitude Altitude Speed Heading
2026-05-07 02:29 45.58987 -122.59058 31 ft 0 kts 224°
2026-05-07 02:46 45.58994 -122.59050 30 ft 4 kts 219°
2026-05-07 02:47 45.59014 -122.59024 31 ft 4 kts 234°
2026-05-07 02:47 45.59024 -122.58991 32 ft 4 kts 271°
2026-05-07 02:47 45.59020 -122.58967 33 ft 2 kts 300°
2026-05-07 02:47 45.59019 -122.58963 33 ft 2 kts 300°
2026-05-07 02:55 45.59020 -122.58967 33 ft 1 kts 300°
2026-05-07 02:55 45.59025 -122.58978 33 ft 2 kts 299°
2026-05-07 02:55 45.59039 -122.59016 32 ft 8 kts 299°
2026-05-07 02:55 45.59081 -122.59123 31 ft 10 kts 299°
2026-05-07 02:56 45.59082 -122.59126 32 ft 0 kts 299°
2026-05-07 02:58 45.59108 -122.59190 33 ft 19 kts 304°
2026-05-07 02:58 45.59209 -122.59407 28 ft 30 kts 298°
2026-05-07 02:59 45.59308 -122.59688 27 ft 26 kts 277°
2026-05-07 02:59 45.59252 -122.59813 27 ft 1 kts 208°
2026-05-07 02:59 45.59216 -122.59841 26 ft 10 kts 208°
2026-05-07 02:59 45.59187 -122.59864 26 ft 2 kts 210°
2026-05-07 03:00 45.59184 -122.59866 26 ft 0 kts 210°
2026-05-07 03:00 45.59180 -122.59869 26 ft 2 kts 210°
2026-05-07 03:00 45.59157 -122.59899 27 ft 6 kts 228°
2026-05-07 03:01 45.59138 -122.59973 28 ft 10 kts 262°
2026-05-07 03:01 45.59110 -122.60076 29 ft 13 kts 226°
2026-05-07 03:01 45.59014 -122.60161 30 ft 19 kts 209°
2026-05-07 03:01 45.58928 -122.60221 32 ft 8 kts 194°
2026-05-07 03:02 45.58885 -122.60245 32 ft 6 kts 200°
2026-05-07 03:02 45.58883 -122.60245 32 ft 0 kts 201°
2026-05-07 03:02 45.58860 -122.60238 32 ft 5 kts 136°
2026-05-07 03:02 45.58871 -122.60202 32 ft 0 kts
2026-05-07 03:03 45.58873 -122.60201 32 ft 1 kts 16°
2026-05-07 03:03 45.58885 -122.60183 32 ft 3 kts 69°
2026-05-07 03:03 45.58873 -122.60153 34 ft 5 kts 124°
2026-05-07 03:03 45.58849 -122.60105 34 ft 7 kts 125°
2026-05-07 03:04 45.58814 -122.60029 34 ft 11 kts 117°
2026-05-07 03:04 45.58772 -122.59917 35 ft 14 kts 122°
2026-05-07 03:04 45.58721 -122.59787 35 ft 17 kts 118°
2026-05-07 03:04 45.58658 -122.59624 34 ft 21 kts 117°
2026-05-07 03:05 45.58584 -122.59436 33 ft 23 kts 120°
2026-05-07 03:05 45.58503 -122.59227 31 ft 24 kts 118°
2026-05-07 03:05 45.58424 -122.59021 28 ft 23 kts 119°
2026-05-07 03:05 45.58347 -122.58824 32 ft 22 kts 118°
2026-05-07 03:06 45.58272 -122.58632 32 ft 22 kts 117°
2026-05-07 03:06 45.58200 -122.58440 30 ft 22 kts 118°
2026-05-07 03:06 45.58155 -122.58369 29 ft 0 kts 155°
2026-05-07 03:07 45.58152 -122.58367 29 ft 2 kts 155°
2026-05-07 03:07 45.58129 -122.58362 29 ft 4 kts 189°
2026-05-07 03:07 45.58101 -122.58372 30 ft 4 kts 196°
2026-05-07 03:07 45.58067 -122.58432 32 ft 13 kts 274°
2026-05-07 03:08 45.58107 -122.58541 34 ft 22 kts 301°
2026-05-07 03:08 45.58330 -122.59099 30 ft 106 kts 301°
2026-05-07 03:08 45.58818 -122.60292 111 ft 167 kts 304°
2026-05-07 03:08 45.59452 -122.61766 919 ft 180 kts 303°
2026-05-07 03:09 45.60099 -122.63314 1963 ft 189 kts 303°
2026-05-07 03:09 45.60838 -122.65032 2306 ft 215 kts 303°
2026-05-07 03:09 45.61651 -122.66880 2734 ft 228 kts 302°
2026-05-07 03:09 45.62489 -122.68953 2988 ft 250 kts 299°
2026-05-07 03:10 45.63353 -122.71134 3807 ft 252 kts 297°
2026-05-07 03:10 45.64226 -122.73317 4662 ft 255 kts 298°
2026-05-07 03:10 45.65111 -122.75514 5503 ft 255 kts 298°
2026-05-07 03:10 45.65994 -122.77699 6435 ft 253 kts 299°
2026-05-07 03:11 45.66841 -122.79920 7177 ft 256 kts 290°
2026-05-07 03:11 45.67074 -122.82430 7917 ft 258 kts 268°
2026-05-07 03:11 45.66735 -122.84960 8709 ft 261 kts 256°
2026-05-07 03:11 45.66195 -122.87466 9462 ft 265 kts 255°
2026-05-07 03:12 45.65352 -122.89835 10209 ft 274 kts 233°
2026-05-07 03:12 45.63839 -122.91522 10942 ft 285 kts 211°
2026-05-07 03:12 45.61845 -122.92286 11227 ft 317 kts 186°
2026-05-07 03:12 45.59570 -122.91742 11426 ft 347 kts 168°
2026-05-07 03:13 45.57191 -122.90709 11736 ft 363 kts 167°
2026-05-07 03:13 45.54764 -122.89628 12307 ft 369 kts 166°
2026-05-07 03:13 45.52427 -122.88117 12957 ft 378 kts 154°
2026-05-07 03:13 45.50133 -122.86150 13652 ft 382 kts 152°
2026-05-07 03:14 45.47862 -122.84129 14231 ft 387 kts 152°
2026-05-07 03:14 45.45596 -122.82113 14753 ft 391 kts 152°
2026-05-07 03:14 45.40927 -122.78019 15915 ft 398 kts 153°
2026-05-07 03:15 45.38550 -122.75967 16464 ft 402 kts 153°
2026-05-07 03:15 45.36143 -122.73902 17034 ft 406 kts 153°
2026-05-07 03:15 45.33715 -122.71827 17576 ft 409 kts 153°
2026-05-07 03:15 45.31254 -122.69731 18114 ft 413 kts 153°
2026-05-07 03:16 45.28770 -122.67617 18632 ft 417 kts 153°
2026-05-07 03:16 45.26278 -122.65499 19133 ft 419 kts 153°
2026-05-07 03:16 45.23766 -122.63365 19626 ft 422 kts 152°
2026-05-07 03:16 45.21232 -122.61215 20097 ft 426 kts 152°
2026-05-07 03:17 45.18679 -122.59051 20555 ft 429 kts 152°
2026-05-07 03:17 45.16107 -122.56874 21023 ft 432 kts 152°
2026-05-07 03:17 45.13518 -122.54683 21478 ft 436 kts 152°
2026-05-07 03:17 45.10905 -122.52475 21919 ft 439 kts 152°
2026-05-07 03:18 45.08269 -122.50249 22417 ft 440 kts 152°
2026-05-07 03:18 45.05597 -122.48144 22816 ft 440 kts 156°
2026-05-07 03:18 45.02934 -122.45924 23173 ft 448 kts 147°
2026-05-07 03:18 45.00339 -122.43440 23589 ft 451 kts 150°
2026-05-07 03:19 44.97643 -122.41157 23978 ft 453 kts 152°
2026-05-07 03:19 44.94921 -122.38987 24325 ft 456 kts 155°
2026-05-07 03:19 44.91981 -122.37362 24671 ft 453 kts 166°
2026-05-07 03:19 44.88967 -122.36089 25089 ft 453 kts 165°
2026-05-07 03:20 44.85945 -122.34748 25429 ft 457 kts 165°
2026-05-07 03:20 44.82910 -122.33375 25757 ft 460 kts 165°
2026-05-07 03:20 44.79856 -122.31974 26109 ft 462 kts 164°
2026-05-07 03:20 44.76782 -122.30600 26361 ft 467 kts 165°
2026-05-07 03:21 44.73672 -122.29209 26692 ft 469 kts 164°
2026-05-07 03:21 44.70584 -122.27798 27134 ft 467 kts 165°
2026-05-07 03:21 44.67464 -122.26421 27350 ft 469 kts 168°
2026-05-07 03:21 44.64318 -122.25109 27623 ft 473 kts 162°
2026-05-07 03:22 44.61224 -122.23527 28001 ft 474 kts 162°
2026-05-07 03:22 44.58114 -122.21949 28279 ft 476 kts 163°
2026-05-07 03:22 44.54974 -122.20412 28543 ft 480 kts 163°
2026-05-07 03:22 44.51799 -122.18918 28847 ft 482 kts 163°
2026-05-07 03:23 44.48650 -122.17459 29141 ft 484 kts 164°
2026-05-07 03:23 44.45442 -122.16003 29430 ft 486 kts 165°
2026-05-07 03:23 44.42216 -122.14546 29690 ft 488 kts 164°
2026-05-07 03:23 44.38975 -122.13074 29967 ft 491 kts 164°
2026-05-07 03:24 44.35724 -122.11588 30223 ft 493 kts 164°
2026-05-07 03:24 44.32459 -122.10091 30510 ft 493 kts 163°
2026-05-07 03:24 44.29217 -122.08500 30824 ft 493 kts 162°
2026-05-07 03:24 44.25971 -122.06970 31130 ft 492 kts 165°
2026-05-07 03:25 44.22700 -122.05612 31438 ft 490 kts 166°
2026-05-07 03:25 44.19441 -122.04226 31693 ft 491 kts 165°
2026-05-07 03:25 44.16183 -122.02767 31907 ft 492 kts 163°
2026-05-07 03:25 44.12928 -122.01234 32229 ft 491 kts 163°
2026-05-07 03:26 44.09703 -121.99735 32579 ft 489 kts 163°
2026-05-07 03:26 44.06485 -121.98250 33020 ft 485 kts 163°
2026-05-07 03:26 44.03280 -121.96786 33319 ft 484 kts 163°
2026-05-07 03:26 44.00078 -121.95335 33532 ft 485 kts 163°
2026-05-07 03:27 43.96863 -121.93883 33750 ft 486 kts 163°
2026-05-07 03:27 43.93660 -121.92437 34026 ft 485 kts 163°
2026-05-07 03:27 43.90447 -121.90987 34311 ft 484 kts 163°
2026-05-07 03:27 43.87257 -121.89548 34567 ft 482 kts 163°
2026-05-07 03:28 43.84011 -121.88390 34751 ft 480 kts 175°
2026-05-07 03:28 43.80693 -121.87939 34955 ft 479 kts 179°
2026-05-07 03:28 43.77370 -121.87675 35148 ft 478 kts 180°
2026-05-07 03:29 43.70698 -121.87245 35145 ft 480 kts 179°
2026-05-07 03:29 43.64046 -121.86719 35131 ft 477 kts 178°
2026-05-07 03:30 43.57442 -121.86108 35138 ft 474 kts 178°
2026-05-07 03:30 43.50870 -121.85473 35130 ft 473 kts 178°
2026-05-07 03:31 43.44314 -121.84841 35127 ft 472 kts 178°
2026-05-07 03:31 43.37811 -121.84220 35132 ft 472 kts 178°
2026-05-07 03:32 43.31258 -121.83598 35137 ft 473 kts 178°
2026-05-07 03:32 43.24680 -121.82975 35123 ft 474 kts 178°
2026-05-07 03:33 43.18091 -121.82352 35128 ft 475 kts 178°
2026-05-07 03:33 43.11483 -121.81730 34644 ft 475 kts 179°
2026-05-07 03:33 43.08150 -121.81609 34749 ft 459 kts 181°
2026-05-07 03:34 43.05227 -121.81770 37262 ft 353 kts 188°
2026-05-07 03:34 43.03118 -121.81946 40109 ft 280 kts 186°
2026-05-07 03:34 43.01102 -121.82091 38964 ft 317 kts 186°
2026-05-07 03:34 42.98598 -121.82345 36685 ft 386 kts 187°
2026-05-07 03:35 42.95914 -121.82630 36483 ft 391 kts 181°
2026-05-07 03:35 42.93081 -121.82746 34952 ft 430 kts 185°
2026-05-07 03:35 42.89884 -121.82846 32541 ft 482 kts 181°
2026-05-07 03:35 42.86407 -121.82842 30903 ft 502 kts 182°
2026-05-07 03:36 42.83025 -121.82905 30941 ft 479 kts 182°
2026-05-07 03:36 42.79765 -121.82364 30769 ft 466 kts 163°
2026-05-07 03:36 42.76778 -121.80836 30833 ft 452 kts 159°
2026-05-07 03:37 42.70829 -121.78377 30879 ft 454 kts 170°
2026-05-07 03:37 42.64444 -121.77210 31039 ft 466 kts 177°
2026-05-07 03:37 42.61229 -121.76891 31159 ft 470 kts 178°
2026-05-07 03:38 42.57958 -121.76624 31372 ft 472 kts 178°
2026-05-07 03:38 42.54672 -121.76365 31588 ft 474 kts 178°
2026-05-07 03:38 42.51390 -121.76095 31908 ft 470 kts 177°
2026-05-07 03:38 42.48116 -121.75812 32102 ft 473 kts 177°
2026-05-07 03:39 42.44817 -121.75516 32222 ft 477 kts 177°
2026-05-07 03:39 42.41501 -121.75212 32445 ft 478 kts 177°
2026-05-07 03:39 42.38193 -121.74905 32789 ft 476 kts 177°
2026-05-07 03:39 42.34888 -121.74599 33158 ft 474 kts 177°
2026-05-07 03:40 42.31589 -121.74293 33444 ft 474 kts 177°
2026-05-07 03:40 42.28293 -121.73990 33681 ft 474 kts 177°
2026-05-07 03:40 42.25001 -121.73688 33965 ft 474 kts 177°
2026-05-07 03:40 42.21716 -121.73387 34238 ft 473 kts 177°
2026-05-07 03:41 42.18442 -121.73087 34523 ft 472 kts 177°
2026-05-07 03:41 42.15165 -121.72791 34785 ft 471 kts 178°
2026-05-07 03:41 42.12996 -121.72664 34941 ft 470 kts 179°
2026-05-07 03:41 42.08632 -121.72596 35161 ft 470 kts 181°
2026-05-07 03:42 42.06457 -121.72607 35156 ft 472 kts 181°
2026-05-07 03:42 42.00035 -121.72667 35157 ft 472 kts 181°
2026-05-07 03:43 41.93487 -121.72684 35144 ft 469 kts 181°
2026-05-07 03:43 41.86970 -121.72662 35117 ft 467 kts 181°
2026-05-07 03:44 41.80484 -121.72626 35122 ft 465 kts 181°
2026-05-07 03:44 41.74015 -121.72591 35133 ft 465 kts 181°
2026-05-07 03:45 41.67537 -121.72558 35130 ft 465 kts 181°
2026-05-07 03:45 41.61046 -121.72526 35149 ft 467 kts 181°
2026-05-07 03:46 41.54533 -121.72493 35137 ft 469 kts 181°
2026-05-07 03:46 41.47994 -121.72461 35134 ft 470 kts 181°
2026-05-07 03:47 41.41436 -121.72428 35143 ft 472 kts 181°
2026-05-07 03:47 41.34905 -121.72395 35113 ft 459 kts 181°
2026-05-07 03:47 41.31748 -121.72377 34948 ft 450 kts 181°
2026-05-07 03:48 41.28634 -121.72361 34649 ft 444 kts 181°
2026-05-07 03:48 41.25558 -121.72346 34297 ft 441 kts 181°
2026-05-07 03:48 41.22496 -121.72331 33894 ft 439 kts 181°
2026-05-07 03:48 41.19444 -121.72317 33415 ft 438 kts 181°
2026-05-07 03:49 41.16426 -121.72302 33162 ft 432 kts 181°
2026-05-07 03:49 41.13424 -121.72288 32737 ft 430 kts 180°
2026-05-07 03:49 41.10445 -121.72274 32376 ft 427 kts 180°
2026-05-07 03:49 41.07484 -121.72259 32023 ft 424 kts 180°
2026-05-07 03:50 41.04548 -121.72244 31658 ft 421 kts 180°
2026-05-07 03:50 41.01658 -121.72230 31307 ft 419 kts 180°
2026-05-07 03:50 40.98753 -121.72216 30955 ft 416 kts 180°
2026-05-07 03:50 40.95859 -121.72202 30606 ft 414 kts 180°
2026-05-07 03:51 40.92982 -121.72188 30269 ft 412 kts 180°
2026-05-07 03:51 40.90125 -121.72174 29863 ft 410 kts 180°
2026-05-07 03:51 40.87277 -121.72160 29474 ft 407 kts 180°
2026-05-07 03:51 40.84458 -121.72146 29112 ft 404 kts 180°
2026-05-07 03:52 40.81647 -121.72132 28737 ft 401 kts 180°
2026-05-07 03:52 40.78864 -121.72119 28397 ft 398 kts 180°
2026-05-07 03:52 40.76105 -121.72105 28035 ft 396 kts 180°
2026-05-07 03:52 40.73360 -121.72092 27675 ft 393 kts 180°
2026-05-07 03:53 40.70629 -121.72078 27324 ft 390 kts 180°
2026-05-07 03:53 40.67921 -121.72065 26980 ft 388 kts 180°
2026-05-07 03:53 40.65227 -121.72052 26635 ft 386 kts 180°
2026-05-07 03:53 40.62550 -121.72039 26286 ft 384 kts 180°
2026-05-07 03:54 40.59886 -121.72026 25947 ft 382 kts 180°
2026-05-07 03:54 40.57234 -121.72013 25608 ft 380 kts 180°
2026-05-07 03:54 40.54600 -121.72000 25272 ft 378 kts 180°
2026-05-07 03:54 40.51979 -121.71988 24948 ft 376 kts 180°
2026-05-07 03:55 40.49363 -121.71975 24607 ft 375 kts 180°
2026-05-07 03:55 40.46762 -121.71963 24258 ft 374 kts 180°
2026-05-07 03:55 40.44158 -121.71949 23921 ft 373 kts 180°
2026-05-07 03:55 40.41578 -121.71808 23679 ft 369 kts 177°
2026-05-07 03:56 40.39032 -121.71568 23398 ft 365 kts 176°
2026-05-07 03:56 40.36544 -121.71333 23124 ft 360 kts 176°
2026-05-07 03:56 40.34059 -121.71105 22887 ft 355 kts 176°
2026-05-07 03:56 40.31604 -121.70889 22552 ft 354 kts 177°
2026-05-07 03:57 40.29155 -121.70677 22243 ft 351 kts 177°
2026-05-07 03:57 40.26719 -121.70467 21912 ft 350 kts 177°
2026-05-07 03:57 40.24297 -121.70259 21586 ft 348 kts 177°
2026-05-07 03:57 40.21883 -121.70052 21265 ft 346 kts 177°
2026-05-07 03:58 40.19484 -121.69846 20945 ft 345 kts 177°
2026-05-07 03:58 40.17094 -121.69641 20626 ft 344 kts 177°
2026-05-07 03:58 40.14717 -121.69437 20303 ft 342 kts 177°
2026-05-07 03:58 40.12343 -121.69233 19976 ft 341 kts 177°
2026-05-07 03:59 40.09981 -121.69030 19667 ft 339 kts 178°
2026-05-07 03:59 40.07631 -121.68829 19354 ft 338 kts 178°
2026-05-07 03:59 40.05286 -121.68628 19040 ft 337 kts 178°
2026-05-07 03:59 40.02943 -121.68428 18716 ft 337 kts 177°
2026-05-07 04:00 40.00613 -121.68229 18405 ft 336 kts 178°
2026-05-07 04:00 39.98284 -121.68029 18049 ft 335 kts 178°
2026-05-07 04:00 39.95961 -121.67831 17703 ft 333 kts 178°
2026-05-07 04:00 39.93673 -121.67635 17567 ft 325 kts 178°
2026-05-07 04:01 39.91421 -121.67442 17283 ft 322 kts 178°
2026-05-07 04:01 39.89188 -121.67252 16982 ft 321 kts 178°
2026-05-07 04:01 39.86965 -121.67063 16676 ft 319 kts 178°
2026-05-07 04:01 39.84748 -121.66874 16368 ft 318 kts 178°
2026-05-07 04:02 39.82544 -121.66687 16058 ft 317 kts 177°
2026-05-07 04:02 39.80344 -121.66500 15729 ft 316 kts 177°
2026-05-07 04:02 39.78147 -121.66313 15389 ft 316 kts 177°
2026-05-07 04:02 39.75954 -121.66127 15082 ft 315 kts 178°
2026-05-07 04:03 39.73771 -121.65942 14774 ft 314 kts 178°
2026-05-07 04:03 39.71589 -121.65757 14470 ft 314 kts 178°
2026-05-07 04:03 39.69439 -121.65574 14170 ft 313 kts 178°
2026-05-07 04:03 39.67264 -121.65390 13852 ft 313 kts 178°
2026-05-07 04:04 39.65095 -121.65206 13513 ft 312 kts 177°
2026-05-07 04:04 39.62936 -121.65024 13191 ft 311 kts 177°
2026-05-07 04:04 39.60783 -121.64842 12881 ft 309 kts 177°
2026-05-07 04:04 39.58641 -121.64661 12574 ft 308 kts 177°
2026-05-07 04:05 39.56511 -121.64480 12274 ft 306 kts 176°
2026-05-07 04:05 39.54390 -121.64301 11977 ft 305 kts 177°
2026-05-07 04:05 39.52280 -121.64123 11678 ft 303 kts 176°
2026-05-07 04:05 39.50176 -121.63946 11392 ft 302 kts 176°
2026-05-07 04:06 39.48089 -121.63770 11123 ft 300 kts 176°
2026-05-07 04:06 39.46014 -121.63596 10839 ft 298 kts 176°
2026-05-07 04:06 39.43949 -121.63422 10553 ft 297 kts 176°
2026-05-07 04:06 39.41886 -121.63249 10265 ft 296 kts 175°
2026-05-07 04:07 39.39850 -121.63078 10125 ft 290 kts 176°
2026-05-07 04:07 39.37859 -121.62911 10049 ft 284 kts 176°
2026-05-07 04:07 39.35905 -121.62747 10013 ft 278 kts 175°
2026-05-07 04:07 39.34008 -121.62588 9917 ft 271 kts 176°
2026-05-07 04:08 39.32098 -121.62427 9403 ft 279 kts 176°
2026-05-07 04:08 39.30142 -121.62262 9024 ft 282 kts 176°
2026-05-07 04:08 39.28188 -121.62098 8777 ft 280 kts 176°
2026-05-07 04:08 39.26239 -121.61935 8446 ft 281 kts 176°
2026-05-07 04:09 39.24285 -121.61772 8185 ft 280 kts 176°
2026-05-07 04:09 39.22347 -121.61610 7914 ft 279 kts 177°
2026-05-07 04:09 39.20398 -121.61448 7575 ft 281 kts 177°
2026-05-07 04:09 39.18451 -121.61286 7350 ft 279 kts 177°
2026-05-07 04:10 39.16516 -121.61126 7102 ft 278 kts 177°
2026-05-07 04:10 39.14583 -121.60965 6831 ft 278 kts 177°
2026-05-07 04:10 39.12676 -121.60807 6547 ft 279 kts 177°
2026-05-07 04:10 39.10747 -121.60647 6272 ft 278 kts 177°
2026-05-07 04:11 39.08810 -121.60487 6003 ft 277 kts 177°
2026-05-07 04:11 39.06888 -121.60328 5755 ft 276 kts 177°
2026-05-07 04:11 39.04969 -121.60169 5475 ft 276 kts 176°
2026-05-07 04:11 39.03053 -121.60010 5210 ft 276 kts 176°
2026-05-07 04:12 39.01139 -121.59852 4945 ft 276 kts 176°
2026-05-07 04:12 38.99224 -121.59693 4677 ft 275 kts 177°
2026-05-07 04:12 38.97318 -121.59611 4463 ft 272 kts 181°
2026-05-07 04:12 38.95439 -121.59646 4284 ft 267 kts 182°
2026-05-07 04:13 38.93614 -121.59696 4208 ft 259 kts 182°
2026-05-07 04:13 38.91842 -121.59740 4137 ft 250 kts 182°
2026-05-07 04:13 38.90128 -121.59777 4040 ft 241 kts 182°
2026-05-07 04:13 38.88446 -121.59811 3557 ft 248 kts 182°
2026-05-07 04:14 38.86714 -121.59857 3151 ft 246 kts 181°
2026-05-07 04:14 38.85041 -121.59894 2719 ft 236 kts 180°
2026-05-07 04:14 38.83433 -121.59952 2388 ft 221 kts 182°
2026-05-07 04:14 38.82025 -121.60092 2387 ft 194 kts 184°
2026-05-07 04:15 38.80674 -121.60149 1991 ft 189 kts 179°
2026-05-07 04:15 38.79422 -121.60127 1727 ft 174 kts 175°
2026-05-07 04:15 38.78306 -121.60028 1592 ft 149 kts 175°
2026-05-07 04:15 38.77332 -121.60023 1377 ft 131 kts 180°
2026-05-07 04:16 38.76439 -121.60020 1086 ft 125 kts 178°
2026-05-07 04:16 38.75572 -121.59995 883 ft 124 kts 181°
2026-05-07 04:16 38.74668 -121.60035 780 ft 133 kts 182°
2026-05-07 04:16 38.73744 -121.60110 635 ft 136 kts 182°
2026-05-07 04:17 38.72818 -121.60080 516 ft 129 kts 179°
2026-05-07 04:17 38.71916 -121.60107 353 ft 128 kts 180°
2026-05-07 04:17 38.71020 -121.60112 162 ft 128 kts 180°
2026-05-07 04:17 38.70162 -121.60107 38 ft 108 kts 181°
2026-05-07 04:18 38.69713 -121.60113 28 ft 29 kts 154°
2026-05-07 04:18 38.69695 -121.60081 30 ft 2 kts 74°
2026-05-07 04:18 38.69699 -121.60060 30 ft 6 kts 79°
2026-05-07 04:18 38.69706 -121.59962 32 ft 16 kts 90°
2026-05-07 04:19 38.69704 -121.59768 33 ft 27 kts 91°
2026-05-07 04:19 38.69644 -121.59606 33 ft 21 kts 188°
2026-05-07 04:19 38.69557 -121.59598 34 ft 0 kts 171°
2026-05-07 04:20 38.69555 -121.59593 34 ft 1 kts 126°
2026-05-07 04:20 38.69553 -121.59572 33 ft 9 kts 99°
2026-05-07 04:20 38.69550 -121.59540 34 ft 0 kts 96°